Year,Month,Day,Hour,Minute,Value (Times are PST for temperature in C)
2010,03,03,00,00,5.80
2010,03,03,00,01,5.80
2010,03,03,00,02,5.70
2010,03,03,00,03,5.70
2010,03,03,00,04,5.70
2010,03,03,00,05,5.70
2010,03,03,00,06,5.70
2010,03,03,00,07,5.70
2010,03,03,00,08,5.70
2010,03,03,00,09,5.70
2010,03,03,00,10,5.70
2010,03,03,00,11,5.80
2010,03,03,00,12,5.80
2010,03,03,00,13,5.80
2010,03,03,00,14,5.80
2010,03,03,00,15,5.80
2010,03,03,00,16,5.80
2010,03,03,00,17,5.90
2010,03,03,00,18,5.90
2010,03,03,00,19,5.90
2010,03,03,00,20,5.90
2010,03,03,00,21,6.00
2010,03,03,00,22,6.00
2010,03,03,00,23,6.10
2010,03,03,00,24,6.10
2010,03,03,00,25,6.10
2010,03,03,00,26,6.20
2010,03,03,00,27,6.20
2010,03,03,00,28,6.20
2010,03,03,00,29,6.20
2010,03,03,00,30,6.20
2010,03,03,00,31,6.30
2010,03,03,00,32,6.30
2010,03,03,00,33,6.30
2010,03,03,00,34,6.30
2010,03,03,00,35,6.20
2010,03,03,00,36,6.20
2010,03,03,00,37,6.20
2010,03,03,00,38,6.20
2010,03,03,00,39,6.10
2010,03,03,00,40,6.00
2010,03,03,00,41,6.00
2010,03,03,00,42,5.90
2010,03,03,00,43,5.90
2010,03,03,00,44,5.80
2010,03,03,00,45,5.80
2010,03,03,00,46,5.80
2010,03,03,00,47,5.70
2010,03,03,00,48,5.70
2010,03,03,00,49,5.60
2010,03,03,00,50,5.60
2010,03,03,00,51,5.60
2010,03,03,00,52,5.50
2010,03,03,00,53,5.50
2010,03,03,00,54,5.50
2010,03,03,00,55,5.40
2010,03,03,00,56,5.40
2010,03,03,00,57,5.40
2010,03,03,00,58,5.30
2010,03,03,00,59,5.30
2010,03,03,01,00,5.30
2010,03,03,01,01,5.20
2010,03,03,01,02,5.20
2010,03,03,01,03,5.20
2010,03,03,01,04,5.10
2010,03,03,01,05,5.10
2010,03,03,01,06,5.10
2010,03,03,01,07,5.10
2010,03,03,01,08,5.10
2010,03,03,01,09,5.10
2010,03,03,01,10,5.10
2010,03,03,01,11,5.10
2010,03,03,01,12,5.10
2010,03,03,01,13,5.10
2010,03,03,01,14,5.10
2010,03,03,01,15,5.10
2010,03,03,01,16,5.10
2010,03,03,01,17,5.10
2010,03,03,01,18,5.10
2010,03,03,01,19,5.00
2010,03,03,01,20,5.00
2010,03,03,01,21,5.00
2010,03,03,01,22,5.00
2010,03,03,01,23,5.00
2010,03,03,01,24,4.90
2010,03,03,01,25,4.90
2010,03,03,01,26,4.90
2010,03,03,01,27,4.90
2010,03,03,01,28,4.80
2010,03,03,01,29,4.80
2010,03,03,01,30,4.80
2010,03,03,01,31,4.80
2010,03,03,01,32,4.70
2010,03,03,01,33,4.70
2010,03,03,01,34,4.70
2010,03,03,01,35,4.70
2010,03,03,01,36,4.70
2010,03,03,01,37,4.70
2010,03,03,01,38,4.70
2010,03,03,01,39,4.70
2010,03,03,01,40,4.70
2010,03,03,01,41,4.70
2010,03,03,01,42,4.70
2010,03,03,01,43,4.70
2010,03,03,01,44,4.80
2010,03,03,01,45,4.80
2010,03,03,01,46,4.80
2010,03,03,01,47,4.80
2010,03,03,01,48,4.70
2010,03,03,01,49,4.70
2010,03,03,01,50,4.70
2010,03,03,01,51,4.80
2010,03,03,01,52,4.80
2010,03,03,01,53,4.80
2010,03,03,01,54,4.80
2010,03,03,01,55,4.80
2010,03,03,01,56,4.80
2010,03,03,01,57,4.80
2010,03,03,01,58,4.80
2010,03,03,01,59,4.80
2010,03,03,02,00,4.80
2010,03,03,02,01,4.80
2010,03,03,02,02,4.80
2010,03,03,02,03,4.80
2010,03,03,02,04,4.80
2010,03,03,02,05,4.80
2010,03,03,02,06,4.70
2010,03,03,02,07,4.70
2010,03,03,02,08,4.70
2010,03,03,02,09,4.70
2010,03,03,02,10,4.70
2010,03,03,02,11,4.70
2010,03,03,02,12,4.70
2010,03,03,02,13,4.70
2010,03,03,02,14,4.60
2010,03,03,02,15,4.60
2010,03,03,02,16,4.60
2010,03,03,02,17,4.60
2010,03,03,02,18,4.60
2010,03,03,02,19,4.60
2010,03,03,02,20,4.60
2010,03,03,02,21,4.60
2010,03,03,02,22,4.60
2010,03,03,02,23,4.60
2010,03,03,02,24,4.60
2010,03,03,02,25,4.60
2010,03,03,02,26,4.60
2010,03,03,02,27,4.70
2010,03,03,02,28,4.70
2010,03,03,02,29,4.70
2010,03,03,02,30,4.70
2010,03,03,02,31,4.70
2010,03,03,02,32,4.70
2010,03,03,02,33,4.70
2010,03,03,02,34,4.80
2010,03,03,02,35,4.80
2010,03,03,02,36,4.80
2010,03,03,02,37,4.80
2010,03,03,02,38,4.90
2010,03,03,02,39,4.90
2010,03,03,02,40,5.00
2010,03,03,02,41,5.00
2010,03,03,02,42,5.00
2010,03,03,02,43,5.10
2010,03,03,02,44,5.10
2010,03,03,02,45,5.20
2010,03,03,02,46,5.20
2010,03,03,02,47,5.20
2010,03,03,02,48,5.30
2010,03,03,02,49,5.30
2010,03,03,02,50,5.30
2010,03,03,02,51,5.30
2010,03,03,02,52,5.30
2010,03,03,02,53,5.30
2010,03,03,02,54,5.30
2010,03,03,02,55,5.30
2010,03,03,02,56,5.30
2010,03,03,02,57,5.30
2010,03,03,02,58,5.30
2010,03,03,02,59,5.30
2010,03,03,03,00,5.30
2010,03,03,03,01,5.30
2010,03,03,03,02,5.30
2010,03,03,03,03,5.30
2010,03,03,03,04,5.30
2010,03,03,03,05,5.30
2010,03,03,03,06,5.30
2010,03,03,03,07,5.30
2010,03,03,03,08,5.30
2010,03,03,03,09,5.30
2010,03,03,03,10,5.30
2010,03,03,03,11,5.40
2010,03,03,03,12,5.30
2010,03,03,03,13,5.30
2010,03,03,03,14,5.30
2010,03,03,03,15,5.30
2010,03,03,03,16,5.30
2010,03,03,03,17,5.30
2010,03,03,03,18,5.30
2010,03,03,03,19,5.30
2010,03,03,03,20,5.30
2010,03,03,03,21,5.30
2010,03,03,03,22,5.30
2010,03,03,03,23,5.30
2010,03,03,03,24,5.30
2010,03,03,03,25,5.30
2010,03,03,03,26,5.30
2010,03,03,03,27,5.30
2010,03,03,03,28,5.30
2010,03,03,03,29,5.30
2010,03,03,03,30,5.30
2010,03,03,03,31,5.30
2010,03,03,03,32,5.30
2010,03,03,03,33,5.40
2010,03,03,03,34,5.40
2010,03,03,03,35,5.40
2010,03,03,03,36,5.40
2010,03,03,03,37,5.40
2010,03,03,03,38,5.50
2010,03,03,03,39,5.60
2010,03,03,03,40,5.60
2010,03,03,03,41,5.70
2010,03,03,03,42,5.70
2010,03,03,03,43,5.80
2010,03,03,03,44,5.80
2010,03,03,03,45,5.90
2010,03,03,03,46,5.90
2010,03,03,03,47,6.00
2010,03,03,03,48,6.00
2010,03,03,03,49,6.10
2010,03,03,03,50,6.10
2010,03,03,03,51,6.10
2010,03,03,03,52,6.20
2010,03,03,03,53,6.20
2010,03,03,03,54,6.20
2010,03,03,03,55,6.30
2010,03,03,03,56,6.30
2010,03,03,03,57,6.30
2010,03,03,03,58,6.30
2010,03,03,03,59,6.30
2010,03,03,04,00,6.30
2010,03,03,04,01,6.30
2010,03,03,04,02,6.30
2010,03,03,04,03,6.40
2010,03,03,04,04,6.40
2010,03,03,04,05,6.40
2010,03,03,04,06,6.40
2010,03,03,04,07,6.40
2010,03,03,04,08,6.40
2010,03,03,04,09,6.40
2010,03,03,04,10,6.40
2010,03,03,04,11,6.50
2010,03,03,04,12,6.40
2010,03,03,04,13,6.40
2010,03,03,04,14,6.50
2010,03,03,04,15,6.40
2010,03,03,04,16,6.40
2010,03,03,04,17,6.40
2010,03,03,04,18,6.40
2010,03,03,04,19,6.40
2010,03,03,04,20,6.40
2010,03,03,04,21,6.40
2010,03,03,04,22,6.40
2010,03,03,04,23,6.40
2010,03,03,04,24,6.40
2010,03,03,04,25,6.40
2010,03,03,04,26,6.40
2010,03,03,04,27,6.40
2010,03,03,04,28,6.40
2010,03,03,04,29,6.40
2010,03,03,04,30,6.40
2010,03,03,04,31,6.40
2010,03,03,04,32,6.40
2010,03,03,04,33,6.40
2010,03,03,04,34,6.40
2010,03,03,04,35,6.40
2010,03,03,04,36,6.40
2010,03,03,04,37,6.40
2010,03,03,04,38,6.40
2010,03,03,04,39,6.40
2010,03,03,04,40,6.40
2010,03,03,04,41,6.40
2010,03,03,04,42,6.40
2010,03,03,04,43,6.40
2010,03,03,04,44,6.40
2010,03,03,04,45,6.40
2010,03,03,04,46,6.40
2010,03,03,04,47,6.40
2010,03,03,04,48,6.40
2010,03,03,04,49,6.30
2010,03,03,04,50,6.30
2010,03,03,04,51,6.30
2010,03,03,04,52,6.30
2010,03,03,04,53,6.30
2010,03,03,04,54,6.30
2010,03,03,04,55,6.30
2010,03,03,04,56,6.30
2010,03,03,04,57,6.20
2010,03,03,04,58,6.20
2010,03,03,04,59,6.20
2010,03,03,05,00,6.20
2010,03,03,05,01,6.20
2010,03,03,05,02,6.10
2010,03,03,05,03,6.10
2010,03,03,05,04,6.10
2010,03,03,05,05,6.00
2010,03,03,05,06,6.00
2010,03,03,05,07,5.90
2010,03,03,05,08,5.90
2010,03,03,05,09,5.90
2010,03,03,05,10,5.80
2010,03,03,05,11,5.80
2010,03,03,05,12,5.80
2010,03,03,05,13,5.80
2010,03,03,05,14,5.80
2010,03,03,05,15,5.80
2010,03,03,05,16,5.70
2010,03,03,05,17,5.70
2010,03,03,05,18,5.70
2010,03,03,05,19,5.70
2010,03,03,05,20,5.70
2010,03,03,05,21,5.70
2010,03,03,05,22,5.60
2010,03,03,05,23,5.60
2010,03,03,05,24,5.60
2010,03,03,05,25,5.60
2010,03,03,05,26,5.60
2010,03,03,05,27,5.60
2010,03,03,05,28,5.50
2010,03,03,05,29,5.50
2010,03,03,05,30,5.50
2010,03,03,05,31,5.50
2010,03,03,05,32,5.50
2010,03,03,05,33,5.40
2010,03,03,05,34,5.40
2010,03,03,05,35,5.40
2010,03,03,05,36,5.40
2010,03,03,05,37,5.40
2010,03,03,05,38,5.40
2010,03,03,05,39,5.40
2010,03,03,05,40,5.30
2010,03,03,05,41,5.30
2010,03,03,05,42,5.30
2010,03,03,05,43,5.30
2010,03,03,05,44,5.30
2010,03,03,05,45,5.30
2010,03,03,05,46,5.30
2010,03,03,05,47,5.30
2010,03,03,05,48,5.30
2010,03,03,05,49,5.30
2010,03,03,05,50,5.20
2010,03,03,05,51,5.20
2010,03,03,05,52,5.20
2010,03,03,05,53,5.20
2010,03,03,05,54,5.20
2010,03,03,05,55,5.20
2010,03,03,05,56,5.10
2010,03,03,05,57,5.10
2010,03,03,05,58,5.10
2010,03,03,05,59,5.10
2010,03,03,06,00,5.10
2010,03,03,06,01,5.10
2010,03,03,06,02,5.00
2010,03,03,06,03,5.00
2010,03,03,06,04,5.00
2010,03,03,06,05,4.90
2010,03,03,06,06,4.90
2010,03,03,06,07,4.90
2010,03,03,06,08,4.90
2010,03,03,06,09,4.90
2010,03,03,06,10,4.80
2010,03,03,06,11,4.80
2010,03,03,06,12,4.80
2010,03,03,06,13,4.80
2010,03,03,06,14,4.70
2010,03,03,06,15,4.70
2010,03,03,06,16,4.70
2010,03,03,06,17,4.70
2010,03,03,06,18,4.70
2010,03,03,06,19,4.70
2010,03,03,06,20,4.70
2010,03,03,06,21,4.70
2010,03,03,06,22,4.70
2010,03,03,06,23,4.60
2010,03,03,06,24,4.60
2010,03,03,06,25,4.60
2010,03,03,06,26,4.60
2010,03,03,06,27,4.60
2010,03,03,06,28,4.60
2010,03,03,06,29,4.60
2010,03,03,06,30,4.60
2010,03,03,06,31,4.60
2010,03,03,06,32,4.60
2010,03,03,06,33,4.60
2010,03,03,06,34,4.60
2010,03,03,06,35,4.60
2010,03,03,06,36,4.60
2010,03,03,06,37,4.60
2010,03,03,06,38,4.60
2010,03,03,06,39,4.60
2010,03,03,06,40,4.60
2010,03,03,06,41,4.60
2010,03,03,06,42,4.60
2010,03,03,06,43,4.60
2010,03,03,06,44,4.60
2010,03,03,06,45,4.60
2010,03,03,06,46,4.60
2010,03,03,06,47,4.70
2010,03,03,06,48,4.70
2010,03,03,06,49,4.70
2010,03,03,06,50,4.70
2010,03,03,06,51,4.70
2010,03,03,06,52,4.70
2010,03,03,06,53,4.70
2010,03,03,06,54,4.70
2010,03,03,06,55,4.70
2010,03,03,06,56,4.70
2010,03,03,06,57,4.70
2010,03,03,06,58,4.70
2010,03,03,06,59,4.70
2010,03,03,07,00,4.70
2010,03,03,07,01,4.70
2010,03,03,07,02,4.70
2010,03,03,07,03,4.70
2010,03,03,07,04,4.70
2010,03,03,07,05,4.80
2010,03,03,07,06,4.80
2010,03,03,07,07,4.80
2010,03,03,07,08,4.80
2010,03,03,07,09,4.80
2010,03,03,07,10,4.80
2010,03,03,07,11,4.80
2010,03,03,07,12,4.80
2010,03,03,07,13,4.80
2010,03,03,07,14,4.80
2010,03,03,07,15,4.80
2010,03,03,07,16,4.80
2010,03,03,07,17,4.80
2010,03,03,07,18,4.80
2010,03,03,07,19,4.80
2010,03,03,07,20,4.80
2010,03,03,07,21,4.90
2010,03,03,07,22,4.90
2010,03,03,07,23,4.90
2010,03,03,07,24,4.90
2010,03,03,07,25,4.90
2010,03,03,07,26,4.90
2010,03,03,07,27,4.90
2010,03,03,07,28,4.90
2010,03,03,07,29,4.90
2010,03,03,07,30,4.90
2010,03,03,07,31,4.90
2010,03,03,07,32,4.90
2010,03,03,07,33,4.90
2010,03,03,07,34,4.90
2010,03,03,07,35,4.90
2010,03,03,07,36,4.90
2010,03,03,07,37,4.90
2010,03,03,07,38,4.90
2010,03,03,07,39,5.00
2010,03,03,07,40,5.00
2010,03,03,07,41,5.00
2010,03,03,07,42,5.10
2010,03,03,07,43,5.10
2010,03,03,07,44,5.10
2010,03,03,07,45,5.10
2010,03,03,07,46,5.10
2010,03,03,07,47,5.10
2010,03,03,07,48,5.10
2010,03,03,07,49,5.20
2010,03,03,07,50,5.20
2010,03,03,07,51,5.20
2010,03,03,07,52,5.20
2010,03,03,07,53,5.20
2010,03,03,07,54,5.30
2010,03,03,07,55,5.30
2010,03,03,07,56,5.40
2010,03,03,07,57,5.40
2010,03,03,07,58,5.50
2010,03,03,07,59,5.50
2010,03,03,08,00,5.60
2010,03,03,08,01,5.60
2010,03,03,08,02,5.60
2010,03,03,08,03,5.60
2010,03,03,08,04,5.70
2010,03,03,08,05,5.70
2010,03,03,08,06,5.70
2010,03,03,08,07,5.70
2010,03,03,08,08,5.80
2010,03,03,08,09,5.80
2010,03,03,08,10,5.80
2010,03,03,08,11,5.90
2010,03,03,08,12,5.90
2010,03,03,08,13,5.90
2010,03,03,08,14,5.90
2010,03,03,08,15,5.90
2010,03,03,08,16,6.00
2010,03,03,08,17,6.00
2010,03,03,08,18,6.00
2010,03,03,08,19,6.10
2010,03,03,08,20,6.10
2010,03,03,08,21,6.10
2010,03,03,08,22,6.20
2010,03,03,08,23,6.20
2010,03,03,08,24,6.20
2010,03,03,08,25,6.20
2010,03,03,08,26,6.30
2010,03,03,08,27,6.30
2010,03,03,08,28,6.30
2010,03,03,08,29,6.40
2010,03,03,08,30,6.40
2010,03,03,08,31,6.40
2010,03,03,08,32,6.40
2010,03,03,08,33,6.40
2010,03,03,08,34,6.50
2010,03,03,08,35,6.50
2010,03,03,08,36,6.50
2010,03,03,08,37,6.50
2010,03,03,08,38,6.50
2010,03,03,08,39,6.60
2010,03,03,08,40,6.60
2010,03,03,08,41,6.60
2010,03,03,08,42,6.60
2010,03,03,08,43,6.60
2010,03,03,08,44,6.60
2010,03,03,08,45,6.60
2010,03,03,08,46,6.70
2010,03,03,08,47,6.70
2010,03,03,08,48,6.70
2010,03,03,08,49,6.70
2010,03,03,08,50,6.80
2010,03,03,08,51,6.80
2010,03,03,08,52,6.80
2010,03,03,08,53,6.80
2010,03,03,08,54,6.80
2010,03,03,08,55,6.80
2010,03,03,08,56,6.80
2010,03,03,08,57,6.90
2010,03,03,08,58,6.90
2010,03,03,08,59,6.90
2010,03,03,09,00,7.00
2010,03,03,09,01,7.00
2010,03,03,09,02,7.10
2010,03,03,09,03,7.10
2010,03,03,09,04,7.10
2010,03,03,09,05,7.10
2010,03,03,09,06,7.20
2010,03,03,09,07,7.20
2010,03,03,09,08,7.20
2010,03,03,09,09,7.20
2010,03,03,09,10,7.30
2010,03,03,09,11,7.30
2010,03,03,09,12,7.40
2010,03,03,09,13,7.40
2010,03,03,09,14,7.40
2010,03,03,09,15,7.40
2010,03,03,09,16,7.40
2010,03,03,09,17,7.40
2010,03,03,09,18,7.40
2010,03,03,09,19,7.40
2010,03,03,09,20,7.50
2010,03,03,09,21,7.50
2010,03,03,09,22,7.60
2010,03,03,09,23,7.60
2010,03,03,09,24,7.60
2010,03,03,09,25,7.60
2010,03,03,09,26,7.70
2010,03,03,09,27,7.70
2010,03,03,09,28,7.70
2010,03,03,09,29,7.70
2010,03,03,09,30,7.70
2010,03,03,09,31,7.70
2010,03,03,09,32,7.80
2010,03,03,09,33,7.80
2010,03,03,09,34,7.80
2010,03,03,09,35,7.80
2010,03,03,09,36,7.90
2010,03,03,09,37,7.90
2010,03,03,09,38,7.90
2010,03,03,09,39,8.00
2010,03,03,09,40,8.10
2010,03,03,09,41,8.10
2010,03,03,09,42,8.10
2010,03,03,09,43,8.10
2010,03,03,09,44,8.10
2010,03,03,09,45,8.10
2010,03,03,09,46,8.10
2010,03,03,09,47,8.10
2010,03,03,09,48,8.20
2010,03,03,09,49,8.20
2010,03,03,09,50,8.20
2010,03,03,09,51,8.20
2010,03,03,09,52,8.20
2010,03,03,09,53,8.20
2010,03,03,09,54,8.20
2010,03,03,09,55,8.20
2010,03,03,09,56,8.20
2010,03,03,09,57,8.30
2010,03,03,09,58,8.30
2010,03,03,09,59,8.30
2010,03,03,10,00,8.30
2010,03,03,10,01,8.40
2010,03,03,10,02,8.40
2010,03,03,10,03,8.40
2010,03,03,10,04,8.40
2010,03,03,10,05,8.40
2010,03,03,10,06,8.40
2010,03,03,10,07,8.40
2010,03,03,10,08,8.30
2010,03,03,10,09,8.30
2010,03,03,10,10,8.30
2010,03,03,10,11,8.30
2010,03,03,10,12,8.40
2010,03,03,10,13,8.40
2010,03,03,10,14,8.40
2010,03,03,10,15,8.40
2010,03,03,10,16,8.40
2010,03,03,10,17,8.40
2010,03,03,10,18,8.40
2010,03,03,10,19,8.50
2010,03,03,10,20,8.50
2010,03,03,10,21,8.60
2010,03,03,10,22,8.70
2010,03,03,10,23,8.70
2010,03,03,10,24,8.70
2010,03,03,10,25,8.60
2010,03,03,10,26,8.60
2010,03,03,10,27,8.60
2010,03,03,10,28,8.60
2010,03,03,10,29,8.60
2010,03,03,10,30,8.60
2010,03,03,10,31,8.50
2010,03,03,10,32,8.50
2010,03,03,10,33,8.50
2010,03,03,10,34,8.50
2010,03,03,10,35,8.40
2010,03,03,10,36,8.40
2010,03,03,10,37,8.40
2010,03,03,10,38,8.40
2010,03,03,10,39,8.50
2010,03,03,10,40,8.50
2010,03,03,10,41,8.60
2010,03,03,10,42,8.60
2010,03,03,10,43,8.70
2010,03,03,10,44,8.80
2010,03,03,10,45,8.80
2010,03,03,10,46,8.80
2010,03,03,10,47,8.80
2010,03,03,10,48,8.90
2010,03,03,10,49,8.90
2010,03,03,10,50,8.90
2010,03,03,10,51,8.90
2010,03,03,10,52,8.90
2010,03,03,10,53,8.90
2010,03,03,10,54,8.90
2010,03,03,10,55,9.00
2010,03,03,10,56,9.00
2010,03,03,10,57,9.00
2010,03,03,10,58,9.00
2010,03,03,10,59,9.00
2010,03,03,11,00,9.00
2010,03,03,11,01,9.00
2010,03,03,11,02,9.00
2010,03,03,11,03,9.00
2010,03,03,11,04,8.90
2010,03,03,11,05,8.90
2010,03,03,11,06,9.00
2010,03,03,11,07,9.00
2010,03,03,11,08,9.00
2010,03,03,11,09,9.10
2010,03,03,11,10,9.10
2010,03,03,11,11,9.20
2010,03,03,11,12,9.30
2010,03,03,11,13,9.30
2010,03,03,11,14,9.40
2010,03,03,11,15,9.40
2010,03,03,11,16,9.40
2010,03,03,11,17,9.40
2010,03,03,11,18,9.30
2010,03,03,11,19,9.30
2010,03,03,11,20,9.30
2010,03,03,11,21,9.20
2010,03,03,11,22,9.20
2010,03,03,11,23,9.20
2010,03,03,11,24,9.20
2010,03,03,11,25,9.30
2010,03,03,11,26,9.30
2010,03,03,11,27,9.30
2010,03,03,11,28,9.30
2010,03,03,11,29,9.30
2010,03,03,11,30,9.30
2010,03,03,11,31,9.40
2010,03,03,11,32,9.40
2010,03,03,11,33,9.50
2010,03,03,11,34,9.50
2010,03,03,11,35,9.50
2010,03,03,11,36,9.50
2010,03,03,11,37,9.50
2010,03,03,11,38,9.50
2010,03,03,11,39,9.50
2010,03,03,11,40,9.50
2010,03,03,11,41,9.50
2010,03,03,11,42,9.60
2010,03,03,11,43,9.60
2010,03,03,11,44,9.60
2010,03,03,11,45,9.60
2010,03,03,11,46,9.60
2010,03,03,11,47,9.60
2010,03,03,11,48,9.60
2010,03,03,11,49,9.70
2010,03,03,11,50,9.70
2010,03,03,11,51,9.80
2010,03,03,11,52,9.80
2010,03,03,11,53,9.70
2010,03,03,11,54,9.60
2010,03,03,11,55,9.50
2010,03,03,11,56,9.40
2010,03,03,11,57,9.40
2010,03,03,11,58,9.40
2010,03,03,11,59,9.40
2010,03,03,12,00,9.40
2010,03,03,12,01,9.30
2010,03,03,12,02,9.20
2010,03,03,12,03,9.20
2010,03,03,12,04,9.20
2010,03,03,12,05,9.20
2010,03,03,12,06,9.20
2010,03,03,12,07,9.30
2010,03,03,12,08,9.30
2010,03,03,12,09,9.30
2010,03,03,12,10,9.20
2010,03,03,12,11,9.20
2010,03,03,12,12,9.30
2010,03,03,12,13,9.30
2010,03,03,12,14,9.30
2010,03,03,12,15,9.30
2010,03,03,12,16,9.40
2010,03,03,12,17,9.40
2010,03,03,12,18,9.50
2010,03,03,12,19,9.60
2010,03,03,12,20,9.60
2010,03,03,12,21,9.60
2010,03,03,12,22,9.60
2010,03,03,12,23,9.60
2010,03,03,12,24,9.60
2010,03,03,12,25,9.60
2010,03,03,12,26,9.60
2010,03,03,12,27,9.60
2010,03,03,12,28,9.60
2010,03,03,12,29,9.60
2010,03,03,12,30,9.60
2010,03,03,12,31,9.60
2010,03,03,12,32,9.60
2010,03,03,12,33,9.60
2010,03,03,12,34,9.60
2010,03,03,12,35,9.60
2010,03,03,12,36,9.50
2010,03,03,12,37,9.40
2010,03,03,12,38,9.40
2010,03,03,12,39,9.40
2010,03,03,12,40,9.40
2010,03,03,12,41,9.30
2010,03,03,12,42,9.20
2010,03,03,12,43,9.20
2010,03,03,12,44,9.20
2010,03,03,12,45,9.20
2010,03,03,12,46,9.20
2010,03,03,12,47,9.20
2010,03,03,12,48,9.20
2010,03,03,12,49,9.20
2010,03,03,12,50,9.30
2010,03,03,12,51,9.30
2010,03,03,12,52,9.30
2010,03,03,12,53,9.30
2010,03,03,12,54,9.30
2010,03,03,12,55,9.30
2010,03,03,12,56,9.30
2010,03,03,12,57,9.20
2010,03,03,12,58,9.20
2010,03,03,12,59,9.20
2010,03,03,13,00,9.20
2010,03,03,13,01,9.30
2010,03,03,13,02,9.30
2010,03,03,13,03,9.40
2010,03,03,13,04,9.50
2010,03,03,13,05,9.60
2010,03,03,13,06,9.60
2010,03,03,13,07,9.60
2010,03,03,13,08,9.60
2010,03,03,13,09,9.60
2010,03,03,13,10,9.50
2010,03,03,13,11,9.50
2010,03,03,13,12,9.40
2010,03,03,13,13,9.40
2010,03,03,13,14,9.40
2010,03,03,13,15,9.40
2010,03,03,13,16,9.40
2010,03,03,13,17,9.40
2010,03,03,13,18,9.40
2010,03,03,13,19,9.40
2010,03,03,13,20,9.50
2010,03,03,13,21,9.50
2010,03,03,13,22,9.60
2010,03,03,13,23,9.60
2010,03,03,13,24,9.70
2010,03,03,13,25,9.70
2010,03,03,13,26,9.80
2010,03,03,13,27,9.80
2010,03,03,13,28,9.80
2010,03,03,13,29,9.90
2010,03,03,13,30,9.90
2010,03,03,13,31,9.90
2010,03,03,13,32,10.00
2010,03,03,13,33,10.00
2010,03,03,13,34,10.00
2010,03,03,13,35,10.00
2010,03,03,13,36,9.90
2010,03,03,13,37,9.80
2010,03,03,13,38,9.80
2010,03,03,13,39,9.80
2010,03,03,13,40,9.80
2010,03,03,13,41,9.70
2010,03,03,13,42,9.70
2010,03,03,13,43,9.80
2010,03,03,13,44,9.80
2010,03,03,13,45,9.80
2010,03,03,13,46,9.70
2010,03,03,13,47,9.70
2010,03,03,13,48,9.70
2010,03,03,13,49,9.70
2010,03,03,13,50,9.70
2010,03,03,13,51,9.80
2010,03,03,13,52,9.80
2010,03,03,13,53,9.90
2010,03,03,13,54,9.90
2010,03,03,13,55,10.00
2010,03,03,13,56,10.10
2010,03,03,13,57,10.10
2010,03,03,13,58,10.20
2010,03,03,13,59,10.20
2010,03,03,14,00,10.30
2010,03,03,14,01,10.30
2010,03,03,14,02,10.30
2010,03,03,14,03,10.30
2010,03,03,14,04,10.30
2010,03,03,14,05,10.20
2010,03,03,14,06,10.20
2010,03,03,14,07,10.20
2010,03,03,14,08,10.20
2010,03,03,14,09,10.20
2010,03,03,14,10,10.20
2010,03,03,14,11,10.20
2010,03,03,14,12,10.20
2010,03,03,14,13,10.30
2010,03,03,14,14,10.40
2010,03,03,14,15,10.40
2010,03,03,14,16,10.50
2010,03,03,14,17,10.50
2010,03,03,14,18,10.40
2010,03,03,14,19,10.40
2010,03,03,14,20,10.50
2010,03,03,14,21,10.50
2010,03,03,14,22,10.50
2010,03,03,14,23,10.50
2010,03,03,14,24,10.60
2010,03,03,14,25,10.60
2010,03,03,14,26,10.70
2010,03,03,14,27,10.70
2010,03,03,14,28,10.70
2010,03,03,14,29,10.70
2010,03,03,14,30,10.70
2010,03,03,14,31,10.60
2010,03,03,14,32,10.60
2010,03,03,14,33,10.60
2010,03,03,14,34,10.60
2010,03,03,14,35,10.60
2010,03,03,14,36,10.60
2010,03,03,14,37,10.70
2010,03,03,14,38,10.70
2010,03,03,14,39,10.70
2010,03,03,14,40,10.70
2010,03,03,14,41,10.80
2010,03,03,14,42,10.80
2010,03,03,14,43,10.80
2010,03,03,14,44,10.90
2010,03,03,14,45,10.90
2010,03,03,14,46,11.00
2010,03,03,14,47,11.00
2010,03,03,14,48,11.00
2010,03,03,14,49,10.90
2010,03,03,14,50,10.90
2010,03,03,14,51,10.80
2010,03,03,14,52,10.80
2010,03,03,14,53,10.80
2010,03,03,14,54,10.80
2010,03,03,14,55,10.80
2010,03,03,14,56,10.80
2010,03,03,14,57,10.80
2010,03,03,14,58,10.80
2010,03,03,14,59,10.70
2010,03,03,15,00,10.70
2010,03,03,15,01,10.70
2010,03,03,15,02,10.70
2010,03,03,15,03,10.70
2010,03,03,15,04,10.80
2010,03,03,15,05,10.80
2010,03,03,15,06,10.80
2010,03,03,15,07,10.80
2010,03,03,15,08,10.80
2010,03,03,15,09,10.80
2010,03,03,15,10,10.80
2010,03,03,15,11,10.90
2010,03,03,15,12,10.90
2010,03,03,15,13,10.90
2010,03,03,15,14,10.90
2010,03,03,15,15,10.90
2010,03,03,15,16,10.90
2010,03,03,15,17,10.90
2010,03,03,15,18,10.80
2010,03,03,15,19,10.80
2010,03,03,15,20,10.90
2010,03,03,15,21,10.80
2010,03,03,15,22,10.80
2010,03,03,15,23,10.80
2010,03,03,15,24,10.90
2010,03,03,15,25,10.80
2010,03,03,15,26,10.80
2010,03,03,15,27,10.90
2010,03,03,15,28,10.90
2010,03,03,15,29,10.90
2010,03,03,15,30,11.00
2010,03,03,15,31,11.00
2010,03,03,15,32,11.00
2010,03,03,15,33,11.10
2010,03,03,15,34,11.10
2010,03,03,15,35,11.10
2010,03,03,15,36,11.10
2010,03,03,15,37,11.20
2010,03,03,15,38,11.20
2010,03,03,15,39,11.20
2010,03,03,15,40,11.20
2010,03,03,15,41,11.30
2010,03,03,15,42,11.20
2010,03,03,15,43,11.20
2010,03,03,15,44,11.20
2010,03,03,15,45,11.20
2010,03,03,15,46,11.20
2010,03,03,15,47,11.20
2010,03,03,15,48,11.20
2010,03,03,15,49,11.20
2010,03,03,15,50,11.30
2010,03,03,15,51,11.30
2010,03,03,15,52,11.30
2010,03,03,15,53,11.30
2010,03,03,15,54,11.30
2010,03,03,15,55,11.40
2010,03,03,15,56,11.40
2010,03,03,15,57,11.40
2010,03,03,15,58,11.30
2010,03,03,15,59,11.30
2010,03,03,16,00,11.30
2010,03,03,16,01,11.30
2010,03,03,16,02,11.30
2010,03,03,16,03,11.30
2010,03,03,16,04,11.30
2010,03,03,16,05,11.30
2010,03,03,16,06,11.20
2010,03,03,16,07,11.20
2010,03,03,16,08,11.20
2010,03,03,16,09,11.20
2010,03,03,16,10,11.20
2010,03,03,16,11,11.20
2010,03,03,16,12,11.20
2010,03,03,16,13,11.30
2010,03,03,16,14,11.20
2010,03,03,16,15,11.30
2010,03,03,16,16,11.30
2010,03,03,16,17,11.30
2010,03,03,16,18,11.20
2010,03,03,16,19,11.20
2010,03,03,16,20,11.20
2010,03,03,16,21,11.10
2010,03,03,16,22,11.10
2010,03,03,16,23,11.10
2010,03,03,16,24,11.10
2010,03,03,16,25,11.00
2010,03,03,16,26,10.90
2010,03,03,16,27,10.90
2010,03,03,16,28,10.90
2010,03,03,16,29,10.90
2010,03,03,16,30,10.90
2010,03,03,16,31,10.90
2010,03,03,16,32,10.90
2010,03,03,16,33,11.00
2010,03,03,16,34,11.00
2010,03,03,16,35,11.00
2010,03,03,16,36,11.00
2010,03,03,16,37,11.10
2010,03,03,16,38,11.10
2010,03,03,16,39,11.00
2010,03,03,16,40,11.00
2010,03,03,16,41,11.00
2010,03,03,16,42,11.00
2010,03,03,16,43,11.00
2010,03,03,16,44,11.00
2010,03,03,16,45,11.00
2010,03,03,16,46,11.00
2010,03,03,16,47,10.90
2010,03,03,16,48,10.90
2010,03,03,16,49,10.90
2010,03,03,16,50,10.90
2010,03,03,16,51,10.90
2010,03,03,16,52,10.90
2010,03,03,16,53,10.90
2010,03,03,16,54,10.90
2010,03,03,16,55,10.80
2010,03,03,16,56,10.80
2010,03,03,16,57,10.80
2010,03,03,16,58,10.80
2010,03,03,16,59,10.80
2010,03,03,17,00,10.80
2010,03,03,17,01,10.80
2010,03,03,17,02,10.80
2010,03,03,17,03,10.80
2010,03,03,17,04,10.80
2010,03,03,17,05,10.80
2010,03,03,17,06,10.70
2010,03,03,17,07,10.70
2010,03,03,17,08,10.70
2010,03,03,17,09,10.70
2010,03,03,17,10,10.60
2010,03,03,17,11,10.60
2010,03,03,17,12,10.50
2010,03,03,17,13,10.50
2010,03,03,17,14,10.40
2010,03,03,17,15,10.40
2010,03,03,17,16,10.40
2010,03,03,17,17,10.30
2010,03,03,17,18,10.30
2010,03,03,17,19,10.20
2010,03,03,17,20,10.20
2010,03,03,17,21,10.10
2010,03,03,17,22,10.10
2010,03,03,17,23,10.00
2010,03,03,17,24,10.00
2010,03,03,17,25,9.90
2010,03,03,17,26,9.90
2010,03,03,17,27,9.90
2010,03,03,17,28,9.90
2010,03,03,17,29,9.80
2010,03,03,17,30,9.80
2010,03,03,17,31,9.80
2010,03,03,17,32,9.70
2010,03,03,17,33,9.70
2010,03,03,17,34,9.70
2010,03,03,17,35,9.70
2010,03,03,17,36,9.60
2010,03,03,17,37,9.60
2010,03,03,17,38,9.60
2010,03,03,17,39,9.50
2010,03,03,17,40,9.50
2010,03,03,17,41,9.50
2010,03,03,17,42,9.40
2010,03,03,17,43,9.40
2010,03,03,17,44,9.40
2010,03,03,17,45,9.40
2010,03,03,17,46,9.30
2010,03,03,17,47,9.30
2010,03,03,17,48,9.30
2010,03,03,17,49,9.30
2010,03,03,17,50,9.30
2010,03,03,17,51,9.30
2010,03,03,17,52,9.30
2010,03,03,17,53,9.20
2010,03,03,17,54,9.20
2010,03,03,17,55,9.20
2010,03,03,17,56,9.20
2010,03,03,17,57,9.20